欧洲卫星公司-3星 (SES-3)

导读 | 星芒AI

SES-3 是一颗由 SES 运营的高吞吐量通信卫星,于 2014 年 11 月由 SpaceX 的猎鹰 9 号火箭发射。该卫星位于西经 55 度的轨道位置,主要服务于北美地区的直接到户(DTH)电视广播和宽带通信。SES-3 采用 EUTELSAT 33C 同一平台,搭载 C 波段和 Ku 波段转发器,提供高容量和灵活性,支持多播和点播服务。它增强了 SES 在北美市场的服务能力,为广播公司和内容提供商提供高效、可靠的传输解决方案。

基本信息
目录编号:
37748
目录名称:
SES 3
国际标识:
2011-035A
轨道中心:
EARTH
卫星名称:
欧洲卫星公司-3星
卫星全名:
欧洲卫星公司-3星 (SES-3)
卫星状态:
在轨 (已飞行5345 天)
发射日期:
2011-07-15 UTC
国别 :
美国 (US)
星等 :
--
轨道信息
数据来源 国际轨道数据 AOE轨道数据
星历时间 2026-03-02T23:20:09+0800
9小时前
查看轨道信息
2026-03-01T17:00:00+0800
1天前
查看轨道信息
半长轴 42164.644km 42164.756km
偏心率 0.0003571 0.0003531
轨道倾角 1.051° 1.048°
近地点辐角 260.465° 259.161°
升交点赤经 84.327° 84.357°
平近点角 302.642° 207.631°
近地点 35771.45km 35771.73km
远地点 35801.564km 35801.508km
周期 1436.092分钟 1436.098分钟
每日圈数 1.002721 1.002717
详细信息
卫星平台:
Star-2.4
平衡模式:
三轴稳定
覆盖范围:
大西洋
运营商:
欧洲卫星公司
运营商所在国:
卢森堡
制造商(研发单位):
轨道ATK公司
制造商所在国:
美国
使用方式:
暂无
卫星简介
欧洲卫星公司:成立于1985年,总部设在卢森堡。该公司通过运营ASTRA、AMERICOM及 NEW SKIES卫星系统为客户提供电视、广播和多媒体直接到户的信息传送服务,是世界第二大卫星运营商。该卫星仍在工作。
2D轨道图
3D轨道图
轨道高度分析图
轨道倾角分析图
轨道综合分析图
查看轨道综合分析图